Regional Weather Roundup
Issued by NWS Bismarck, ND

Home | Current Version | Previous Version | Text Only | Print | Product List | Glossary On
Versions: 1 2 3 4 5 6 7 8 9 10 11 12 13 14 15 16 17 18 19 20 21 22 23 24 25 26 27 28 29 30 31 32 33 34 35 36 37 38 39 40 41 42 43 44 45 46 47 48 49 50
379
ASUS43 KBIS 280202
RWRBIS

NWR BROADCAST TEXT
NATIONAL WEATHER SERVICE BISMARCK ND
900 PM CDT SAT AUG 27 2016

NOTE: "FAIR" INDICATES FEW OR NO CLOUDS BELOW 12,000 FEET WITH NO
SIGNIFICANT WEATHER AND/OR OBSTRUCTIONS TO VISIBILITY.


CITY           SKY/WX    TMP DP  RH WIND       PRES   REMARKS
WILLISTON      CLEAR     75  43  31 SE7       29.79S
MINOT          CLEAR     68  46  45 SE7       29.85S
MINOT AFB      CLEAR     64  46  50 E6        29.85R
BISMARCK       CLEAR     63  54  72 SE6       29.88S
DICKINSON      CLEAR     66  43  43 SE12      29.85S
GARRISON         N/A     65  48  54 E7        29.86S
HETTINGER ARPT CLOUDY    69  48  47 SE7       29.89R
JAMESTOWN      CLEAR     64  62  93 E8        29.92R
CARRINGTON     FAIR      64  55  72 SE6       29.93S HAZE
HAZEN          FAIR      64  48  55 SE8       29.88S
OAKES            N/A    N/A N/A N/A MISG        N/A
STANLEY        FAIR      64  50  59 E6        29.88R
$$

CITY           SKY/WX    TMP DP  RH WIND       PRES   REMARKS
GRAND FORKS    CLEAR     62  57  83 S7        29.92R
GRAND FORKS AF CLEAR     59  55  88 S6        29.93R
DEVILS LAKE    CLEAR     66  56  70 SE5       29.91
FARGO          MOCLDY    63  56  78 E9        29.97R
CAVALIER       FAIR      59  59 100 S5        29.92R
GRAFTON        FAIR      61  61 100 SE7       29.94R
GWINNER        FAIR      64  63  94 SE6       29.95R VSB 1
LANGDON        FAIR      61  57  88 SE10      29.92R
ROLLA          FAIR      55  54  94 CALM      29.92S
$$

CITY           SKY/WX    TMP DP  RH WIND       PRES   REMARKS
ABERDEEN       PTCLDY    67  61  81 SE8       29.92R
MOBRIDGE       MOCLDY    69  56  62 SE9G18    29.88S
BUFFALO          N/A     70  50  49 SE12      29.82R
RAPID CITY     PTCLDY    70  51  51 SE5       29.90S
GLASGOW        CLOUDY    72  44  36 S10       29.72S
SIDNEY         CLEAR     70  48  45 CALM      29.77S
WOLF POINT     CLOUDY    73  47  39 CALM      29.74R
GLENDIVE       CLEAR     76  41  28 SE6       29.80R
MILES CITY     CLEAR     78  35  21 CALM      29.79S
BAKER          CLEAR     68  48  48 SE5       29.86R
$$

CITY           SKY/WX    TMP DP  RH WIND       PRES   REMARKS
BILLINGS       MOCLDY    75  38  26 W3        29.82R
GREAT FALLS    CLOUDY    75  39  27 S8        29.76S
$$





USA.gov is the U.S. government's official web portal to all federal, state and local government web resources and services.